DateTime,F1_A11,F1_S11,BsB_S11,BsG_S11,BsR_S11,BbsB_S11,BbsG_S11,BbsR_S11,BaB_A11,BaG_A11,BaR_A11,T_S11,U_S11,P_S11,T1_A11
2016-05-19T00:00:00Z,0000388,20000608,,,,,,,,,,26.2,01.8,0656.0,34.7
2016-05-19T00:01:00Z,0000388,20000608,,,,,,,,,,26.2,01.8,0656.0,34.7
2016-05-19T00:02:00Z,0000388,20000608,,,,,,,,,,26.2,01.8,0656.0,34.7
2016-05-19T00:03:00Z,0000388,60000608,,,,,,,,,,26.2,01.8,0656.0,34.7
2016-05-19T00:04:00Z,0000388,40000608,0010.95,0008.35,0004.84,0001.53,0000.85,0000.61,0000.55,0000.66,0000.54,26.2,01.9,0656.7,34.7
2016-05-19T00:05:00Z,0000388,00000608,0010.10,0008.08,0005.05,0000.92,0000.98,0000.74,0000.78,0000.46,0000.23,26.2,01.9,0656.9,34.7
2016-05-19T00:06:00Z,0000388,00000608,0011.00,0008.84,0004.77,0001.56,0000.48,0000.48,0000.67,0000.61,0000.59,26.2,01.9,0656.9,34.7
2016-05-19T00:07:00Z,0000388,00000608,0011.78,0007.55,0005.36,0001.24,0000.59,0000.77,0000.58,0000.58,0000.51,26.2,01.8,0656.9,34.7
2016-05-19T00:08:00Z,0000388,00000608,0010.89,0008.27,0004.41,0001.30,0000.74,0000.55,0000.70,0000.59,0000.35,26.2,01.9,0656.9,34.7
2016-05-19T00:09:00Z,0000388,00000608,0011.96,0007.73,0004.97,0001.38,0000.59,0001.06,0000.62,0000.69,0000.75,26.2,01.8,0656.9,34.7
2016-05-19T00:10:00Z,0000388,00000608,0011.26,0007.91,0004.92,0001.16,0001.12,0000.55,0000.51,0000.47,0000.52,26.2,01.8,0656.9,34.7
2016-05-19T00:11:00Z,0000388,00000608,0010.95,0007.90,0004.95,0001.25,0000.58,0000.43,0000.92,0000.70,0000.36,26.2,01.8,0656.9,34.7
2016-05-19T00:12:00Z,0000388,00000608,0011.58,0008.32,0005.25,0001.46,0000.78,0001.05,0000.68,0000.51,0000.19,26.2,01.8,0656.9,34.7
2016-05-19T00:13:00Z,0000388,00000608,0011.31,0008.78,0004.97,0001.51,0000.70,0000.39,0000.52,0000.60,0000.62,26.2,01.7,0656.9,34.7
2016-05-19T00:14:00Z,0000388,00000608,0010.51,0007.93,0004.79,0001.85,0000.86,0000.64,0000.58,0000.73,0000.52,26.2,01.8,0656.9,34.7
2016-05-19T00:15:00Z,0000388,00000608,0013.03,0007.61,0005.08,0001.17,0000.72,0000.53,0000.75,0000.47,0000.23,26.2,01.7,0656.9,34.7
2016-05-19T00:16:00Z,0000388,00000608,0011.22,0007.64,0004.76,0001.48,0000.93,0000.79,0000.59,0000.38,0000.50,26.2,01.6,0656.9,34.7
2016-05-19T00:17:00Z,0000388,00000608,0010.96,0008.16,0005.04,0001.00,0001.49,0000.69,0000.74,0000.74,0000.61,26.2,01.7,0656.9,34.7
2016-05-19T00:18:00Z,0000388,00000608,0011.09,0007.48,0005.00,0001.14,0000.48,0000.34,0000.58,0000.53,0000.36,26.2,01.7,0656.9,34.7
2016-05-19T00:19:00Z,0000388,00000608,0012.15,0008.96,0004.75,0001.21,0000.58,0000.80,0000.42,0000.66,0000.40,26.2,01.7,0656.9,34.7
2016-05-19T00:20:00Z,0000388,00000608,0010.95,0007.91,0004.86,0002.06,0000.69,0000.76,0000.82,0000.61,0000.49,26.2,01.8,0657.0,34.7
2016-05-19T00:21:00Z,0000388,00000608,0011.03,0008.36,0004.51,0001.21,0000.98,0000.77,0000.77,0000.52,0000.72,26.2,01.7,0657.0,34.7
2016-05-19T00:22:00Z,0000388,00000608,0011.75,0007.56,0004.40,0001.29,0000.38,0000.77,0000.56,0000.67,0000.06,26.2,01.6,0656.9,34.7
2016-05-19T00:23:00Z,0000388,00000608,0012.07,0007.97,0004.94,0000.92,0000.85,0000.71,0000.83,0000.43,0001.00,26.2,01.6,0657.0,34.7
2016-05-19T00:24:00Z,0000388,00000608,0010.46,0007.25,0004.78,0001.41,0000.70,0000.85,0000.64,0000.67,0000.47,26.2,01.6,0657.0,34.7
2016-05-19T00:25:00Z,0000388,00000608,0010.84,0008.36,0005.06,0000.74,0000.06,0000.45,0000.66,0000.69,0000.11,26.2,01.6,0656.9,34.7
2016-05-19T00:26:00Z,0000388,00000608,0011.64,0007.97,0004.92,0001.22,0001.42,0000.45,0000.56,0000.54,0000.45,26.2,01.6,0656.9,34.7
2016-05-19T00:27:00Z,0000388,00000608,0011.64,0008.10,0004.65,0001.25,0000.82,0000.53,0000.79,0000.53,0000.74,26.2,01.7,0656.9,34.7
2016-05-19T00:28:00Z,0000388,00000608,0010.45,0008.05,0004.97,0001.11,0000.93,0000.55,0000.56,0000.52,-000.23,26.2,01.6,0656.9,34.7
2016-05-19T00:29:00Z,0000388,00000608,0011.83,0008.25,0004.66,0001.00,0000.54,0000.80,0000.46,0000.49,0000.92,26.2,01.6,0656.9,34.7
2016-05-19T00:30:00Z,0000388,00000608,0010.95,0008.07,0004.27,0000.55,0000.83,0000.47,0000.77,0000.53,0000.23,26.2,01.5,0656.9,34.7
2016-05-19T00:31:00Z,0000388,00000608,0011.01,0007.94,0004.42,0001.24,0000.51,0000.50,0000.74,0000.74,0000.57,26.2,01.6,0656.9,34.7
2016-05-19T00:32:00Z,0000388,00000608,0011.41,0008.74,0004.82,0001.32,0000.93,0000.51,0000.71,0000.77,0000.36,26.2,01.6,0656.9,34.7
2016-05-19T00:33:00Z,0000388,00000608,0012.11,0008.12,0004.79,0001.40,0000.59,0000.50,0000.62,0000.52,0000.64,26.2,01.6,0656.9,34.7
2016-05-19T00:34:00Z,0000388,00000608,0011.81,0008.16,0004.47,0001.19,0000.98,0000.93,0000.62,0000.51,0000.70,26.3,01.5,0656.9,34.7
2016-05-19T00:35:00Z,0000388,00000608,0011.37,0008.08,0004.87,0001.06,0000.72,0000.87,0000.61,0000.49,-000.06,26.2,01.5,0656.9,34.7
2016-05-19T00:36:00Z,0000388,00000608,0010.90,0008.29,0004.93,0001.30,0000.82,0000.72,0000.82,0000.52,0000.65,26.3,01.5,0656.9,34.7
2016-05-19T00:37:00Z,0000388,01000608,0010.78,0008.14,0004.88,0001.29,0000.62,0000.90,0000.37,0000.75,0000.53,26.3,01.4,0656.9,34.7
2016-05-19T00:38:00Z,0000388,00000608,0012.34,0008.46,0004.27,0001.37,0000.85,0000.66,0000.60,0000.70,0000.50,26.3,01.5,0656.9,34.7
2016-05-19T00:39:00Z,0000388,00000608,0011.28,0007.99,0004.58,0001.64,0001.15,0000.61,0000.75,0000.35,0000.16,26.3,01.5,0656.9,34.7
2016-05-19T00:40:00Z,0000388,01000608,0010.94,0008.65,0004.95,0001.80,0000.75,0000.47,0000.63,0000.73,0000.86,26.3,01.4,0657.0,34.7
2016-05-19T00:41:00Z,0000388,00000608,0011.55,0007.60,0004.85,0001.19,0000.86,0000.61,0000.68,0000.44,0000.28,26.3,01.4,0657.0,34.7
2016-05-19T00:42:00Z,0000388,01000608,0011.42,0008.17,0005.09,0001.38,0000.67,0000.79,0000.89,0000.68,0000.56,26.3,01.5,0657.0,34.7
2016-05-19T00:43:00Z,0000388,00000608,0010.39,0008.25,0004.52,0001.48,0000.50,0000.58,0000.57,0000.48,0000.43,26.3,01.4,0657.0,34.7
2016-05-19T00:44:00Z,0000388,00000608,0010.47,0007.99,0004.83,0001.29,0000.69,0000.55,0000.77,0000.61,0000.50,26.3,01.4,0657.0,34.7
2016-05-19T00:45:00Z,0000388,00000608,0011.30,0007.76,0004.92,0001.74,0000.67,0001.01,0000.58,0000.60,0000.34,26.3,01.4,0657.0,34.7
2016-05-19T00:46:00Z,0000388,01000608,0011.36,0009.03,0004.25,0001.37,0000.67,0000.77,0000.68,0000.56,0000.72,26.3,01.3,0657.0,34.7
2016-05-19T00:47:00Z,0000388,01000608,0011.69,0007.69,0005.23,0000.95,0000.70,0000.42,0000.67,0000.57,0000.02,26.3,01.4,0657.0,34.7
2016-05-19T00:48:00Z,0000388,00000608,0010.82,0007.94,0005.14,0001.22,0000.96,0000.74,0000.58,0000.46,0000.52,26.3,01.4,0657.0,34.7
2016-05-19T00:49:00Z,0000388,01000608,0011.00,0008.77,0004.58,0001.56,0000.53,0000.72,0000.63,0000.57,0000.76,26.3,01.3,0657.0,34.7
2016-05-19T00:50:00Z,0000388,01000608,0010.62,0008.07,0004.96,0000.96,0000.91,0000.80,0000.80,0000.62,0000.22,26.2,01.3,0657.0,34.7
2016-05-19T00:51:00Z,0000388,00000608,0011.99,0007.73,0004.46,0001.21,0000.62,0000.63,0000.56,0000.65,0000.46,26.2,01.3,0656.9,34.7
2016-05-19T00:52:00Z,0000388,01000608,0010.43,0008.12,0004.61,0001.41,0000.61,0000.13,0000.72,0000.58,0000.43,26.2,01.4,0656.9,34.7
2016-05-19T00:53:00Z,0000388,01000608,0011.41,0008.12,0004.53,0001.11,0001.12,0000.13,0000.67,0000.72,0000.55,26.2,01.3,0656.9,34.7
2016-05-19T00:54:00Z,0000388,01000608,0011.88,0008.02,0004.71,0001.82,0000.70,0000.77,0000.70,0000.51,0000.39,26.2,01.3,0656.9,34.7
2016-05-19T00:55:00Z,0000388,01000608,0011.88,0008.94,0004.58,0000.74,0000.96,0000.53,0000.85,0000.69,0000.67,26.2,01.4,0656.9,34.7
2016-05-19T00:56:00Z,0000388,01000608,0011.54,0007.47,0005.17,0001.21,0000.70,0000.97,0000.43,0000.40,0000.21,26.2,01.4,0656.9,34.7
2016-05-19T00:57:00Z,0000388,40000608,,,,,,,,,,,,0656.9,34.7
2016-05-19T00:58:00Z,0000388,60000608,,,,,,,,,,26.0,01.5,0656.0,34.7
2016-05-19T00:59:00Z,0000388,20000608,,,,,,,,,,26.0,01.5,0656.0,34.7
2016-05-19T01:00:00Z,0000388,20000608,,,,,,,,,,26.0,01.5,0656.0,34.7
2016-05-19T01:01:00Z,0000388,20000608,,,,,,,,,,26.0,01.4,0656.0,34.7
2016-05-19T01:02:00Z,0000388,20000608,,,,,,,,,,26.0,01.3,0656.0,34.7
2016-05-19T01:03:00Z,0000388,60000608,,,,,,,,,,26.1,01.3,0656.0,34.7
2016-05-19T01:04:00Z,0000388,41000608,0010.28,0007.97,0004.80,0000.93,0000.90,0000.66,0000.66,0000.56,0000.40,26.3,01.2,0656.8,34.7
2016-05-19T01:05:00Z,0000388,01000608,0010.53,0007.56,0005.10,0001.33,0000.94,0000.64,0000.62,0000.55,0000.80,26.3,01.3,0656.9,34.7
2016-05-19T01:06:00Z,0000388,01000608,0011.35,0008.12,0004.95,0000.80,0000.38,0000.53,0000.66,0000.72,0000.39,26.3,01.3,0656.9,34.7
2016-05-19T01:07:00Z,0000388,01010608,0010.63,0008.44,0004.61,0001.03,0000.51,0000.23,0000.75,0000.70,0000.61,26.3,01.2,0656.8,34.7
2016-05-19T01:08:00Z,0000388,01010608,0010.15,0007.94,0005.22,0001.27,0000.85,0000.90,0000.72,0000.53,0000.33,26.3,01.3,0656.9,34.7
2016-05-19T01:09:00Z,0000388,01000608,0009.83,0007.86,0004.94,0000.53,0000.80,0000.61,0000.56,0000.33,0000.58,26.3,01.3,0656.9,34.7
2016-05-19T01:10:00Z,0000388,01000608,0011.99,0008.17,0004.93,0002.11,0000.46,0000.42,0000.83,0000.87,0000.54,26.3,01.2,0656.9,34.7
2016-05-19T01:11:00Z,0000388,01000608,0010.29,0008.06,0005.08,0001.53,0000.70,0000.63,0000.54,0000.42,0000.20,26.4,01.2,0656.9,34.7
2016-05-19T01:12:00Z,0000388,01000608,0010.47,0007.80,0005.04,0001.80,0000.80,0000.58,0000.52,0000.47,0000.70,26.4,01.2,0656.9,34.7
2016-05-19T01:13:00Z,0000388,01000608,0011.18,0007.36,0004.55,0001.40,0000.80,0000.69,0000.67,0000.71,0000.47,26.4,01.1,0656.9,34.7
2016-05-19T01:14:00Z,0000388,01000608,0011.05,0007.82,0004.98,0001.17,0000.38,0000.56,0000.75,0000.50,-000.01,26.4,01.1,0656.9,34.7
2016-05-19T01:15:00Z,0000388,01000608,0010.81,0007.04,0005.21,0001.59,0000.98,0000.79,0000.67,0000.62,0000.62,26.4,01.1,0656.9,34.7
2016-05-19T01:16:00Z,0000388,01000608,0010.92,0008.25,0004.64,0001.35,0000.72,0000.24,0000.53,0000.64,0000.35,26.5,01.1,0656.9,34.7
2016-05-19T01:17:00Z,0000388,01000608,0012.42,0007.81,0004.87,0001.56,0000.75,0000.35,0000.73,0000.56,0000.58,26.4,01.1,0656.9,34.7
2016-05-19T01:18:00Z,0000388,01000608,0010.73,0008.12,0004.50,0000.80,0000.38,0000.48,0000.72,0000.65,0000.53,26.5,01.1,0656.9,34.7
2016-05-19T01:19:00Z,0000388,01000608,0010.42,0007.69,0004.97,0001.93,0000.82,0000.85,0000.69,0000.40,0000.29,26.5,01.1,0656.9,34.7
2016-05-19T01:20:00Z,0000388,01000608,0011.26,0008.34,0004.93,0001.29,0001.22,0000.24,0000.65,0000.61,0000.47,26.5,01.1,0656.9,34.7
2016-05-19T01:21:00Z,0000388,01000608,0010.52,0007.70,0005.46,0001.16,0000.51,0000.66,0000.43,0000.47,0000.56,26.5,01.1,0656.9,34.7
2016-05-19T01:22:00Z,0000388,01000608,0011.20,0008.44,0004.85,0001.21,0000.64,0000.47,0000.76,0000.73,0000.26,26.5,01.1,0656.9,34.7
2016-05-19T01:23:00Z,0000388,01000608,0010.60,0008.17,0004.93,0001.05,0000.90,0000.52,0000.69,0000.54,0000.60,26.5,01.0,0656.9,34.7
2016-05-19T01:24:00Z,0000388,01000608,0009.99,0008.12,0005.08,0001.69,0000.74,0000.27,0000.55,0000.71,0000.47,26.5,01.0,0656.9,34.7
2016-05-19T01:25:00Z,0000388,01000608,0011.00,0008.42,0004.80,0001.71,0000.51,0000.60,0000.72,0000.38,0000.08,26.5,01.0,0656.9,34.7
2016-05-19T01:26:00Z,0000388,01000608,0011.44,0008.11,0004.94,0000.98,0000.80,0000.53,0000.58,0000.58,0000.50,26.5,01.0,0656.9,34.7
2016-05-19T01:27:00Z,0000388,01000608,0011.06,0008.61,0005.12,0001.16,0000.87,0000.71,0000.65,0000.51,0000.66,26.5,01.0,0656.9,34.7
2016-05-19T01:28:00Z,0000388,01000608,0011.15,0007.96,0005.67,0001.35,0000.40,0000.69,0000.57,0000.51,0000.30,26.5,00.9,0656.9,34.7
2016-05-19T01:29:00Z,0000388,01000608,0010.27,0007.90,0005.16,0001.35,0000.37,0000.63,0000.68,0000.49,0000.39,26.5,00.9,0657.0,34.7
2016-05-19T01:30:00Z,0000388,01000608,0011.39,0007.85,0005.13,0000.72,0000.82,0000.87,0000.60,0000.75,0000.58,26.5,00.9,0656.9,34.7
2016-05-19T01:31:00Z,0000388,01000608,0011.00,0007.70,0005.67,0001.19,0001.01,0000.68,0000.69,0000.33,0000.45,26.5,00.9,0656.9,34.7
2016-05-19T01:32:00Z,0000388,01000608,0010.82,0007.72,0005.28,0001.29,0000.77,0000.40,0000.77,0000.57,0000.72,26.5,00.9,0656.9,34.7
2016-05-19T01:33:00Z,0000388,01000608,0010.89,0007.44,0005.31,0000.97,0000.48,0000.63,0000.43,0000.61,-000.00,26.5,00.8,0656.9,34.7
2016-05-19T01:34:00Z,0000388,01000608,0011.28,0008.23,0005.02,0001.24,0000.98,0000.52,0000.62,0000.69,0000.54,26.5,00.8,0656.9,34.7
2016-05-19T01:35:00Z,0000388,01000608,0011.22,0007.62,0005.28,0001.27,0000.61,0000.32,0000.71,0000.43,0000.57,26.4,00.9,0656.9,34.7
2016-05-19T01:36:00Z,0000388,01000608,0010.63,0008.42,0005.04,0001.01,0001.01,0000.64,0000.71,0000.64,0000.26,26.4,00.8,0657.0,34.7
2016-05-19T01:37:00Z,0000388,01000608,0009.88,0008.00,0004.94,0002.16,0000.94,0000.55,0000.62,0000.54,0000.47,26.4,00.8,0657.0,34.7
2016-05-19T01:38:00Z,0000388,01000608,0010.59,0007.86,0004.44,0001.27,0000.43,0000.34,0000.53,0000.58,0000.13,26.4,00.8,0657.0,34.7
2016-05-19T01:39:00Z,0000388,01000608,0011.11,0007.48,0005.23,0001.80,0000.69,0000.23,0000.70,0000.52,0000.48,26.4,00.8,0657.0,34.7
2016-05-19T01:40:00Z,0000388,01000608,0011.02,0007.80,0004.77,0001.14,0000.37,0000.37,0000.57,0000.62,0000.65,26.4,00.8,0657.0,34.7
2016-05-19T01:41:00Z,0000388,01000608,0010.03,0007.74,0004.58,0000.84,0000.62,0000.43,0000.92,0000.63,0000.54,26.4,00.8,0657.0,34.7
2016-05-19T01:42:00Z,0000388,01000608,0011.80,0007.51,0004.93,0001.42,0001.09,0000.68,0000.48,0000.57,0000.45,26.4,00.8,0657.0,34.7
2016-05-19T01:43:00Z,0000388,01000608,0010.83,0008.12,0004.81,0001.13,0000.88,0000.39,0000.79,0000.52,0000.38,26.4,00.9,0657.0,34.7
2016-05-19T01:44:00Z,0000388,01000608,0011.26,0008.44,0005.57,0001.64,0000.80,0000.68,0000.49,0000.50,0000.37,26.4,01.0,0657.0,34.7
2016-05-19T01:45:00Z,0000388,01000608,0010.77,0007.49,0005.44,0000.96,0001.23,0001.03,0000.75,0000.67,0000.79,26.3,00.9,0657.0,34.7
2016-05-19T01:46:00Z,0000388,01000608,0010.80,0008.36,0004.99,0001.99,0000.85,0000.55,0000.85,0000.66,0000.40,26.3,00.9,0657.0,34.7
2016-05-19T01:47:00Z,0000388,01000608,0011.30,0008.67,0005.19,0001.48,0000.69,0000.31,0000.64,0000.58,0000.39,26.3,01.0,0657.0,34.7
2016-05-19T01:48:00Z,0000388,01000608,0010.19,0007.47,0005.23,0001.25,0000.61,0000.58,0000.62,0000.57,0000.61,26.3,01.0,0657.0,34.7
2016-05-19T01:49:00Z,0000388,01000608,0010.99,0008.11,0004.95,0001.43,0000.59,0000.95,0000.83,0000.57,0000.33,26.3,00.9,0657.0,34.7
2016-05-19T01:50:00Z,0000388,01000608,0011.05,0008.19,0005.22,0001.19,0001.07,0000.79,0000.37,0000.63,0000.59,26.3,00.9,0657.0,34.7
2016-05-19T01:51:00Z,0000388,01000608,0011.17,0007.77,0005.29,0001.45,0000.51,0000.40,0000.70,0000.70,0000.39,26.3,00.9,0657.0,34.7
2016-05-19T01:52:00Z,0000388,01000608,0011.04,0008.68,0005.14,0001.64,0000.42,0000.39,0000.54,0000.32,0000.32,26.3,00.9,0657.0,34.7
2016-05-19T01:53:00Z,0000388,01000608,0010.96,0008.01,0004.78,0001.56,0000.48,0000.18,0000.70,0000.64,0000.45,26.3,00.9,0657.0,34.7
2016-05-19T01:54:00Z,0000388,01000608,0010.68,0007.50,0004.58,0001.24,0000.42,0000.53,0000.64,0000.61,0000.69,26.3,00.8,0657.0,34.7
2016-05-19T01:55:00Z,0000388,01000608,0010.67,0008.55,0005.44,0001.17,0000.99,0000.64,0000.72,0000.56,0000.31,26.3,00.9,0657.1,34.7
2016-05-19T01:56:00Z,0000388,01000608,0010.82,0007.95,0005.14,0001.61,0001.01,0000.45,0000.68,0000.43,0000.49,26.3,00.8,0657.1,34.7
2016-05-19T01:57:00Z,0000388,40000608,,,,,,,,,,,,0657.1,34.7
2016-05-19T01:58:00Z,0000388,61000608,,,,,,,,,,26.2,00.8,0656.2,34.7
2016-05-19T01:59:00Z,0000388,21000608,,,,,,,,,,26.3,00.8,0656.2,34.7
2016-05-19T02:00:00Z,0000388,21000608,,,,,,,,,,26.3,00.8,0656.2,34.7
2016-05-19T02:01:00Z,0000388,21000608,,,,,,,,,,26.3,00.8,0656.2,34.7
2016-05-19T02:02:00Z,0000388,21000608,,,,,,,,,,26.3,00.8,0656.2,34.7
2016-05-19T02:03:00Z,0000388,61000608,,,,,,,,,,26.3,00.8,0656.2,34.7
2016-05-19T02:04:00Z,0000388,41000608,0011.00,0007.45,0005.26,0000.59,0001.07,0000.74,0000.71,0000.47,0000.63,26.3,00.8,0657.0,34.7
2016-05-19T02:05:00Z,0000388,01000608,0010.77,0007.53,0005.49,0000.88,0000.85,0000.27,0000.56,0000.58,0000.00,26.3,00.8,0657.1,34.7
2016-05-19T02:06:00Z,0000388,01000608,0010.06,0007.99,0004.83,0000.23,0000.67,0000.50,0000.75,0000.66,0000.59,26.3,00.7,0657.1,34.7
2016-05-19T02:07:00Z,0000388,01000608,0010.14,0007.63,0004.96,0000.40,0001.14,0000.74,0000.71,0000.51,0000.70,26.3,00.7,0657.1,34.7
2016-05-19T02:08:00Z,0000388,01000608,0011.04,0007.76,0005.01,0000.18,0000.91,0000.39,0000.54,0000.43,0000.23,26.3,00.7,0657.1,34.7
2016-05-19T02:09:00Z,0000388,01000608,0011.44,0007.55,0005.24,0000.95,0000.50,0000.53,0000.72,0000.86,0000.64,26.3,00.8,0657.1,34.7
2016-05-19T02:10:00Z,0000388,01000608,0011.12,0007.84,0005.22,0000.80,0000.90,0000.45,0000.65,0000.64,0000.66,26.3,00.7,0657.1,34.7
2016-05-19T02:11:00Z,0000388,01000608,0011.20,0007.49,0005.08,0001.21,0000.85,0000.55,0000.77,0000.50,0000.38,26.4,00.7,0657.1,34.7
2016-05-19T02:12:00Z,0000388,01000608,0011.59,0007.70,0005.30,0001.87,0000.88,0000.84,0000.73,0000.65,0000.23,26.4,00.8,0657.0,34.7
2016-05-19T02:13:00Z,0000388,01000608,0012.86,0008.42,0005.60,0000.88,0001.01,0000.58,0000.58,0000.51,0000.62,26.4,00.8,0657.0,34.7
2016-05-19T02:14:00Z,0000388,01000608,0010.73,0007.27,0004.88,0000.98,0000.91,0000.76,0000.77,0000.50,0000.52,26.4,00.8,0657.1,34.7
2016-05-19T02:15:00Z,0000388,01000608,0011.21,0008.03,0005.04,0001.46,0000.78,0000.55,0000.62,0000.73,0000.37,26.4,00.8,0657.1,34.7
2016-05-19T02:16:00Z,0000388,01000608,0011.18,0008.39,0005.83,0001.24,0001.28,0000.39,0000.45,0000.53,0000.30,26.4,00.8,0657.1,34.7
2016-05-19T02:17:00Z,0000388,01000608,0011.35,0008.20,0005.08,0001.27,0000.61,0000.53,0000.84,0000.59,0000.56,26.4,00.8,0657.1,34.7
2016-05-19T02:18:00Z,0000388,01000608,0010.99,0008.14,0005.25,0000.71,0000.99,0000.48,0000.67,0000.57,0000.38,26.4,00.8,0657.1,34.7
2016-05-19T02:19:00Z,0000388,01000608,0011.45,0009.21,0005.34,0001.09,0000.91,0000.23,0000.71,0000.62,0000.86,26.4,00.7,0657.1,34.7
2016-05-19T02:20:00Z,0000388,01000608,0010.33,0008.07,0005.40,0000.85,0000.56,0000.72,0000.61,0000.44,0000.05,26.4,00.7,0657.1,34.7
2016-05-19T02:21:00Z,0000388,01000608,0012.63,0008.64,0005.16,0001.19,0000.72,0000.56,0000.73,0000.58,0000.60,26.5,00.8,0657.1,34.7
2016-05-19T02:22:00Z,0000388,01000608,0011.23,0007.42,0005.29,0001.34,0000.43,0000.76,0000.47,0000.60,0000.67,26.5,00.7,0657.1,34.7
2016-05-19T02:23:00Z,0000388,01000608,0010.82,0009.51,0005.53,0001.19,0001.07,0000.55,0000.75,0000.78,0000.30,26.5,00.8,0657.1,34.7
2016-05-19T02:24:00Z,0000388,01000608,0011.62,0007.99,0005.33,0000.87,0000.70,0000.16,0000.76,0000.59,0000.53,26.5,00.9,0657.1,34.7
2016-05-19T02:25:00Z,0000388,01000608,0010.42,0007.63,0005.54,0000.79,0001.47,0000.56,0000.64,0000.50,0000.68,26.5,00.8,0657.1,34.7
2016-05-19T02:26:00Z,0000388,01000608,0010.33,0007.66,0005.45,0001.35,0000.72,0000.84,0000.76,0000.63,0000.09,26.5,00.8,0657.1,34.7
2016-05-19T02:27:00Z,0000388,01000608,0011.42,0007.76,0004.97,0000.87,0000.72,0000.26,0000.27,0000.56,0000.32,26.5,00.8,0657.2,34.7
2016-05-19T02:28:00Z,0000388,01000608,0010.23,0007.91,0004.51,0001.11,0000.82,0000.29,0000.70,0000.35,0000.56,26.5,00.5,0657.2,34.7
2016-05-19T02:29:00Z,0000388,01000608,0010.60,0008.68,0004.64,0000.42,0000.91,0000.37,0000.46,0000.42,0000.16,26.5,00.5,0657.2,34.7
2016-05-19T02:30:00Z,0000388,01000608,0011.00,0008.07,0004.32,0001.42,0000.85,0000.34,0000.70,0000.57,0000.49,26.5,00.4,0657.2,34.7
2016-05-19T02:31:00Z,0000388,01000608,0012.02,0008.31,0005.31,0000.93,0001.31,0000.31,0000.73,0000.78,0000.29,26.5,00.4,0657.2,34.7
2016-05-19T02:32:00Z,0000388,01000608,0011.70,0008.06,0005.33,0000.82,0000.99,0000.58,0000.56,0000.52,0000.56,26.5,00.5,0657.2,34.7
2016-05-19T02:33:00Z,0000388,01000608,0010.81,0007.45,0005.04,0000.71,0001.25,0000.56,0000.96,0000.65,0000.84,26.5,00.5,0657.2,34.7
2016-05-19T02:34:00Z,0000388,01000608,0010.44,0008.12,0005.04,0000.85,0000.74,0000.58,0000.50,0000.63,0000.39,26.5,00.5,0657.1,34.7
2016-05-19T02:35:00Z,0000388,01000608,0011.27,0007.69,0005.51,0000.98,0000.80,0000.66,0000.93,0000.71,0000.57,26.5,00.6,0657.1,34.7
2016-05-19T02:36:00Z,0000388,01000608,0012.29,0007.95,0005.17,0001.13,0001.12,0000.74,0000.71,0000.46,0000.24,26.4,00.7,0657.1,34.7
2016-05-19T02:37:00Z,0000388,01000608,0009.92,0008.07,0004.73,0001.09,0000.70,0000.60,0000.51,0000.68,0000.44,26.4,00.7,0657.1,34.7
2016-05-19T02:38:00Z,0000388,01000608,0012.04,0007.76,0004.99,0000.68,0001.31,0000.66,0000.78,0000.65,0000.72,26.5,00.6,0657.1,34.7
2016-05-19T02:39:00Z,0000388,01000608,0010.98,0008.20,0005.44,0000.53,0000.70,0000.53,0000.62,0000.53,0000.19,26.5,00.6,0657.1,34.7
2016-05-19T02:40:00Z,0000388,01000608,0011.35,0007.62,0005.41,0000.61,0000.43,0000.66,0000.63,0000.82,0000.63,26.4,00.7,0657.1,34.7
2016-05-19T02:41:00Z,0000388,01000608,0012.22,0007.68,0005.35,0000.66,0000.80,0000.23,0000.71,0000.20,0000.34,26.4,00.7,0657.2,34.7
2016-05-19T02:42:00Z,0000388,01000608,0010.93,0007.70,0005.18,0000.23,0000.91,0000.64,0000.56,0000.70,0000.41,26.4,00.6,0657.1,34.7
2016-05-19T02:43:00Z,0000388,01000608,0010.97,0007.84,0005.25,0000.72,0000.72,0000.90,0000.63,0000.34,0000.46,26.4,00.6,0657.2,34.7
2016-05-19T02:44:00Z,0000388,01000608,0010.71,0007.43,0005.28,0001.05,0000.86,0000.45,0000.60,0000.71,0000.46,26.4,00.6,0657.2,34.7
2016-05-19T02:45:00Z,0000388,01000608,0011.54,0007.37,0005.05,0001.19,0000.72,0000.71,0000.49,0000.49,0000.49,26.4,00.5,0657.2,34.7
2016-05-19T02:46:00Z,0000388,01000608,0010.14,0007.81,0005.56,0000.21,0001.01,0000.52,0000.53,0000.53,0000.61,26.4,00.3,0657.1,34.7
2016-05-19T02:47:00Z,0000388,01000608,0011.03,0008.43,0004.88,0001.17,0000.83,0000.89,0000.93,0000.69,0000.12,26.4,00.4,0657.2,34.7
2016-05-19T02:48:00Z,0000388,01000608,0011.74,0007.73,0005.34,0000.37,0000.66,0000.74,0000.68,0000.55,0000.32,26.4,00.4,0657.2,34.7
2016-05-19T02:49:00Z,0000388,01000608,0010.89,0007.61,0004.82,0000.58,0000.85,0000.32,0000.65,0000.66,0000.74,26.3,00.4,0657.2,34.7
2016-05-19T02:50:00Z,0000388,01000608,0011.08,0007.40,0005.29,0000.47,0000.88,0000.43,0000.51,0000.46,0000.10,26.4,00.4,0657.2,34.7
2016-05-19T02:51:00Z,0000388,01000608,0011.42,0007.39,0005.01,0000.61,0000.86,0000.72,0000.68,0000.52,0000.65,26.4,00.4,0657.1,34.7
2016-05-19T02:52:00Z,0000388,01000608,0011.34,0007.40,0005.04,0000.60,0000.91,0000.69,0000.57,0000.62,0000.41,26.4,00.3,0657.1,34.7
2016-05-19T02:53:00Z,0000388,01000608,0010.67,0007.62,0004.91,0000.96,0000.77,0000.82,0000.72,0000.70,0000.57,26.4,00.4,0657.1,34.7
2016-05-19T02:54:00Z,0000388,01000608,0010.67,0007.99,0005.13,0001.00,0000.88,0000.29,0000.70,0000.57,0000.50,26.4,00.4,0657.1,34.7
2016-05-19T02:55:00Z,0000388,01000608,0010.77,0007.59,0004.97,0001.29,0001.09,0000.50,0000.65,0000.48,0000.27,26.4,00.5,0657.1,34.7
2016-05-19T02:56:00Z,0000388,01000608,0011.20,0008.10,0004.55,0001.11,0000.69,0000.39,0000.76,0000.74,0000.75,26.4,00.5,0657.1,34.7
2016-05-19T02:57:00Z,0000388,41000608,,,,,,,,,,,,0657.2,34.7
2016-05-19T02:58:00Z,0000388,61000608,,,,,,,,,,26.3,00.6,0656.2,34.7
2016-05-19T02:59:00Z,0000388,21000608,,,,,,,,,,26.3,00.6,0656.2,34.7
2016-05-19T03:00:00Z,0000388,21000608,,,,,,,,,,26.3,00.6,0656.2,34.7
2016-05-19T03:01:00Z,0000388,21000608,,,,,,,,,,26.3,00.6,0656.2,34.7
2016-05-19T03:02:00Z,0000388,21000608,,,,,,,,,,26.3,00.6,0656.2,34.7
2016-05-19T03:03:00Z,0000388,61000608,,,,,,,,,,26.4,00.6,0656.2,34.7
2016-05-19T03:04:00Z,0000388,41000608,0011.01,0008.52,0004.82,0000.97,0001.43,0001.06,0000.55,0000.80,0000.48,26.5,00.6,0657.0,34.7
2016-05-19T03:05:00Z,0000388,01000608,0011.10,0008.06,0004.77,0000.84,0000.59,0000.43,0000.61,0000.57,0000.43,26.5,00.6,0657.1,34.7
2016-05-19T03:06:00Z,0000388,01000608,0011.39,0007.49,0004.92,0000.76,0000.54,0000.69,0000.74,0000.40,0000.32,26.5,00.6,0657.1,34.7
2016-05-19T03:07:00Z,0000388,01000608,0010.89,0007.71,0004.43,0001.62,0001.07,0000.50,0000.44,0000.60,0000.53,26.4,00.5,0657.1,34.7
2016-05-19T03:08:00Z,0000388,01000608,0012.02,0007.17,0005.27,0001.16,0001.11,0000.89,0000.77,0000.65,0000.72,26.5,00.5,0657.0,34.7
2016-05-19T03:09:00Z,0000388,01000608,0010.35,0007.37,0004.70,0001.42,0000.74,0000.72,0000.77,0000.72,0000.05,26.5,00.6,0657.0,34.7
2016-05-19T03:10:00Z,0000388,01000608,0011.23,0007.96,0003.87,0001.30,0000.93,0000.11,0000.35,0000.35,0000.49,26.4,00.5,0657.0,34.7
2016-05-19T03:11:00Z,0000388,01000608,0011.58,0008.14,0004.34,0001.45,0000.51,0000.76,0000.86,0000.72,0000.78,26.4,00.6,0657.0,34.7
2016-05-19T03:12:00Z,0000388,01000608,0008.09,0005.38,0002.52,0000.84,0001.11,0000.63,0000.52,0000.50,0000.28,26.5,00.7,0657.0,34.7